Flag for Switzerland Weather past 2 weeks in Uster, Zurich, Switzerland

Now
65 °F

Mild.


Feels Like: 65 °F
Forecast: 57 / 91 °F
Wind: 3 mph from Northeast

Location: Zurich Town / Ville.

Current Time: Jul 1, 2015 at 7:00:05 AM

Latest Report: Jul 1, 2015 at 4:00 AM


Visibility: N/A

Pressure: 30.07 "Hg

Humidity: 69%

Dew point: 54 °F

Location of UsterLocation

Historic Weather in Uster — Graph

°F

Uster temperature yesterday

Maximum temperature yesterday: 85 °F (at 4:00 PM)
Minimum temperature yesterday: 60 °F (at 7:00 AM)
Average temperature yesterday: 72 °F

Past Weeks' High & Low Weather Summary

 TemperatureHumidityPressure
High85 °F (Jun 30, 4:00 PM)98% (Jun 18, 8:00 PM)30.23 "Hg (Jun 18, 8:00 PM)
Low47 °F (Jun 24, 5:00 AM)26% (Jun 25, 8:00 PM)29.70 "Hg (Jun 22, 10:00 PM)
Average63 °F68%30.09 "Hg
* Reported Jun 16 4:00 AM — Jul 1 4:00 AM, Uster, Weather by CustomWeather, © 2015

Note: Actual official high and low records may vary slightly from our data, if they occured in-between our weather recording intervals... More about our weather records

Advertising

Uster weather history for previous 24 hours

 ConditionsComfort  
Time TempWeatherWind HumidityBarometerVisibility
4:00 AM
Wed, Jul 1
65 °FMild.3 mph69%30.07 "HgN/A
3:00 AM63 °FMild.2 mph73%30.08 "HgN/A
2:00 AM66 °FMild.3 mph64%30.07 "HgN/A
1:00 AM69 °FMild.3 mph56%30.06 "HgN/A
12:00 AM73 °FMild.7 mph49%30.05 "HgN/A
11:00 PM
Tue, Jun 30
73 °FMild.6 mph46%30.05 "HgN/A
10:00 PM73 °FMild.7 mph43%30.04 "HgN/A
9:00 PM75 °FMild.5 mph40%30.02 "HgN/A
8:00 PM80 °FSunny.3 mph33%30.00 "HgN/A
6:00 PM85 °FPleasantly warm.7 mph32%29.99 "HgN/A
4:00 PM85 °FPleasantly warm.5 mph34%30.01 "HgN/A
3:00 PM84 °FPleasantly warm.6 mph36%30.02 "HgN/A
2:00 PM82 °FSunny.5 mph38%30.04 "HgN/A
1:00 PM81 °FPleasantly warm.6 mph37%30.06 "HgN/A
12:00 PM79 °FWarm.3 mph48%30.07 "HgN/A
11:00 AM75 °FMild.3 mph49%30.10 "HgN/A
10:00 AM72 °FMild.1 mph59%30.11 "HgN/A
9:00 AM68 °FMild.1 mph66%30.13 "HgN/A
8:00 AM64 °FMild.1 mph71%30.14 "HgN/A
7:00 AM60 °FCool.3 mph86%30.16 "HgN/A
Weather by CustomWeather, © 2015

See weather overviewHow to use our weather pages